EA1FBN Weather Reports


time (UTC)temp
F
wind
direction
speed
knots
gust
knots
rain 1hr
in
rain 24hr
in
rain mn
in
humidity
%
barometer
mb
20260504050516 49 110 1.7 4.3 0.00 0.01 0.00 47 1012.8
20260504050016 49 110 1.7 2.6 0.00 0.01 0.00 47 1012.8
20260504045516 49 91 1.7 2.6 0.00 0.01 0.00 47 1012.8
20260504045016 49 93 0.9 2.6 0.00 0.01 0.00 47 1012.9
20260504044516 49 89 0.9 2.6 0.00 0.01 0.00 47 1012.9
20260504044016 49 89 0.9 2.6 0.00 0.01 0.00 47 1013.0
20260504043516 49 73 0.9 0.9 0.00 0.01 0.00 47 1013.0
20260504043016 49 75 0.9 1.7 0.00 0.01 0.00 47 1013.0
20260504042516 49 56 0.9 2.6 0.00 0.01 0.00 47 1013.0
20260504042016 49 58 0.9 2.6 0.00 0.01 0.00 47 1012.9
20260504041516 49 81 1.7 2.6 0.00 0.01 0.00 47 1012.8
20260504041016 49 98 0.9 3.5 0.00 0.01 0.00 47 1012.9
20260504040516 49 77 0.9 1.7 0.00 0.01 0.00 47 1012.9
20260504040016 49 73 0.9 2.6 0.00 0.01 0.00 48 1012.9
20260504035516 49 87 0.9 2.6 0.00 0.01 0.00 48 1013.0
20260504035016 49 79 0.9 1.7 0.00 0.01 0.00 48 1012.9
20260504034516 49 82 0.9 1.7 0.00 0.01 0.00 48 1012.9
20260504034016 49 86 1.7 3.5 0.00 0.01 0.00 48 1013.1
20260504033516 50 102 2.6 3.5 0.00 0.01 0.00 49 1013.0
20260504033016 50 89 1.7 3.5 0.00 0.01 0.00 49 1013.0
20260504032516 50 96 0.9 2.6 0.00 0.01 0.00 49 1013.0
20260504032016 50 90 0.9 1.7 0.00 0.01 0.00 49 1013.0
20260504031516 50 105 0.9 2.6 0.00 0.01 0.00 50 1013.0
20260504031016 50 77 0.9 1.7 0.00 0.01 0.00 50 1013.1
20260504030516 50 76 0.9 4.3 0.00 0.01 0.00 50 1013.1
20260504030016 50 90 0.0 1.7 0.00 0.01 0.00 51 1013.1
20260504025516 50 99 0.0 0.9 0.00 0.01 0.00 51 1013.0
20260504025016 50 96 0.9 2.6 0.00 0.01 0.00 52 1013.0
20260504024516 50 95 1.7 2.6 0.00 0.01 0.00 52 1013.1
20260504024016 50 102 1.7 2.6 0.00 0.01 0.00 53 1013.2
20260504023516 50 75 2.6 4.3 0.00 0.01 0.00 54 1013.2
20260504023016 50 100 4.3 6.1 0.00 0.01 0.00 54 1013.3
20260504022516 50 113 4.3 7.8 0.00 0.01 0.00 55 1013.2
20260504022016 50 91 5.2 7.8 0.00 0.01 0.00 56 1013.3
20260504021516 50 88 4.3 7.8 0.00 0.01 0.00 56 1013.3
20260504021016 50 89 3.5 5.2 0.00 0.01 0.00 57 1013.2
20260504020516 50 84 4.3 6.1 0.00 0.01 0.00 57 1013.1
20260504020016 50 100 4.3 7.0 0.00 0.01 0.00 57 1013.1
20260504015516 50 102 3.5 6.1 0.00 0.01 0.00 58 1013.1
20260504015016 50 110 2.6 6.1 0.00 0.01 0.00 58 1013.1
20260504014516 50 91 1.7 5.2 0.00 0.01 0.00 59 1013.1
20260504014016 50 110 2.6 3.5 0.00 0.01 0.00 59 1013.1
20260504013516 50 84 1.7 3.5 0.00 0.01 0.00 59 1013.1
20260504013016 50 121 1.7 3.5 0.00 0.01 0.00 59 1013.1
20260504012516 50 53 1.7 3.5 0.00 0.01 0.00 59 1013.1
20260504012016 50 98 2.6 3.5 0.00 0.01 0.00 59 1013.2
20260504011517 51 94 2.6 5.2 0.00 0.01 0.00 58 1013.2
20260504011016 51 69 2.6 4.3 0.00 0.01 0.00 58 1013.3
20260504010516 51 96 3.5 6.1 0.00 0.01 0.00 58 1013.3
20260504010017 51 71 3.5 6.1 0.00 0.01 0.00 58 1013.3
20260504005516 51 97 3.5 5.2 0.00 0.01 0.00 58 1013.3
20260504005017 51 101 3.5 5.2 0.00 0.01 0.00 59 1013.4
20260504004517 51 70 3.5 6.1 0.00 0.01 0.00 60 1013.4
20260504004017 51 92 3.5 6.1 0.00 0.01 0.00 61 1013.4
20260504003517 51 72 3.5 6.1 0.00 0.01 0.00 62 1013.4
20260504003017 51 60 2.6 5.2 0.00 0.01 0.00 63 1013.4
20260504002517 51 91 2.6 4.3 0.00 0.01 0.00 64 1013.5
20260504002017 51 77 1.7 3.5 0.00 0.01 0.00 65 1013.4
20260504001517 51 60 0.9 3.5 0.00 0.01 0.00 66 1013.5
20260504001017 51 49 0.9 2.6 0.00 0.01 0.00 67 1013.4
20260504000517 51 68 0.9 2.6 0.00 0.01 0.00 67 1013.4
20260504000017 51 92 1.7 2.6 0.00 0.01 0.00 68 1013.3
20260503235517 51 160 1.7 3.5 0.00 0.01 0.00 69 1013.0
20260503235017 50 103 1.7 5.2 0.00 0.01 0.00 70 1013.3
20260503234517 51 60 0.9 3.5 0.00 0.01 0.00 70 1013.5
20260503234017 51 88 0.0 1.7 0.00 0.01 0.00 71 1013.3
20260503233517 51 107 0.9 1.7 0.00 0.01 0.00 71 1013.3
20260503233017 51 95 1.7 3.5 0.00 0.01 0.00 71 1013.3
20260503232517 51 102 2.6 4.3 0.00 0.01 0.00 71 1013.4
20260503232017 51 98 1.7 3.5 0.00 0.01 0.00 72 1013.4
20260503231517 51 82 1.7 3.5 0.00 0.01 0.00 72 1013.4
20260503231017 51 86 0.9 2.6 0.00 0.01 0.00 72 1013.4
20260503230517 51 108 0.9 3.5 0.00 0.01 0.00 72 1013.4
20260503230017 51 106 1.7 1.7 0.00 0.01 0.00 72 1013.4
20260503225517 51 88 1.7 3.5 0.00 0.01 0.00 72 1013.5
20260503225017 51 113 1.7 2.6 0.00 0.01 0.00 72 1013.5
20260503224517 51 87 2.6 3.5 0.00 0.01 0.00 72 1013.6
20260503224017 51 95 2.6 4.3 0.00 0.01 0.00 72 1013.6
20260503223517 51 77 2.6 4.3 0.00 0.01 0.00 73 1013.5
20260503223017 51 86 2.6 4.3 0.00 0.01 0.00 73 1013.7
20260503222517 51 56 1.7 4.3 0.00 0.01 0.00 74 1013.6
20260503222017 51 64 2.6 3.5 0.00 0.01 0.00 74 1013.6
20260503221517 51 49 2.6 4.3 0.00 0.01 0.00 74 1013.6
20260503221017 51 64 3.5 7.0 0.00 0.01 0.00 73 1013.6
20260503220517 51 58 3.5 7.0 0.00 0.01 0.00 73 1013.5
20260503220017 51 75 4.3 7.0 0.00 0.01 0.01 73 1013.5
20260503215517 51 102 5.2 7.0 0.00 0.01 0.01 73 1013.4
20260503215017 52 122 5.2 7.0 0.00 0.01 0.01 73 1013.3
20260503214517 52 95 5.2 7.8 0.00 0.01 0.01 73 1013.3
20260503214017 52 102 4.3 7.8 0.00 0.01 0.01 73 1013.4
20260503213517 52 94 3.5 5.2 0.00 0.01 0.01 73 1013.3
20260503213017 52 96 2.6 4.3 0.00 0.01 0.01 73 1013.2
20260503212517 52 96 2.6 4.3 0.00 0.01 0.01 73 1013.1
20260503212017 52 92 2.6 4.3 0.00 0.01 0.01 74 1013.1
20260503211517 52 98 2.6 4.3 0.00 0.01 0.01 74 1013.1
20260503211017 52 103 2.6 3.5 0.00 0.01 0.01 74 1013.1
20260503210517 52 105 3.5 5.2 0.00 0.01 0.01 74 1013.0
20260503210017 52 101 3.5 5.2 0.00 0.01 0.01 74 1013.0
20260503205517 52 112 2.6 5.2 0.00 0.01 0.01 74 1013.0
20260503205017 52 101 2.6 4.3 0.00 0.01 0.01 73 1013.0
20260503204517 52 77 2.6 4.3 0.00 0.01 0.01 74 1013.0
20260503204017 52 83 2.6 3.5 0.00 0.01 0.01 74 1013.0
20260503203517 52 91 3.5 5.2 0.00 0.01 0.01 75 1013.0
20260503203017 52 113 3.5 5.2 0.00 0.01 0.01 75 1013.0
20260503202517 52 85 3.5 4.3 0.00 0.01 0.01 75 1012.9
20260503202017 52 88 3.5 5.2 0.00 0.01 0.01 75 1012.8
20260503201517 52 110 3.5 6.1 0.00 0.01 0.01 75 1012.7
20260503201017 52 87 3.5 6.1 0.00 0.01 0.01 75 1012.7
20260503200517 52 107 3.5 6.1 0.00 0.01 0.01 75 1012.7
20260503200017 52 83 3.5 5.2 0.00 0.01 0.01 75 1012.5
20260503195518 53 94 2.6 4.3 0.00 0.01 0.01 75 1012.5
20260503195018 53 98 2.6 5.2 0.00 0.01 0.01 75 1012.5
20260503194518 53 110 3.5 6.1 0.00 0.01 0.01 75 1012.3
20260503194018 54 108 4.3 7.0 0.00 0.01 0.01 74 1012.2
20260503193518 54 132 3.5 7.8 0.00 0.01 0.01 73 1012.1
20260503193018 55 152 2.6 7.0 0.00 0.01 0.01 73 1012.0
20260503192018 55 155 3.5 5.2 0.00 0.01 0.01 71 1011.8
20260503191519 56 132 4.3 7.0 0.00 0.01 0.01 70 1011.8
20260503191018 57 149 6.1 10.4 0.00 0.01 0.01 69 1011.6
20260503190518 57 137 6.1 13.0 0.00 0.01 0.01 66 1011.5
20260503190018 58 129 5.2 7.0 0.00 0.01 0.01 64 1011.3
20260503185018 59 108 5.2 8.7 0.00 0.01 0.01 61 1011.1
20260503184518 60 103 6.1 8.7 0.00 0.01 0.01 59 1010.9
20260503183518 61 104 7.0 8.7 0.00 0.01 0.01 57 1010.8
20260503183018 61 101 7.0 11.3 0.00 0.01 0.01 56 1010.9
20260503182518 61 103 7.8 11.3 0.00 0.01 0.01 57 1010.9
20260503182018 62 113 8.7 13.0 0.00 0.02 0.01 55 1010.9
20260503181518 62 100 9.6 14.8 0.00 0.02 0.01 54 1010.9
20260503181018 62 112 10.4 13.9 0.00 0.02 0.01 53 1010.9
20260503180518 62 109 11.3 15.6 0.00 0.02 0.01 52 1010.9
20260503180018 62 91 11.3 18.2 0.00 0.02 0.01 51 1010.8
20260503175518 63 112 10.4 16.5 0.00 0.02 0.01 51 1010.8
20260503175018 63 115 11.3 18.2 0.00 0.02 0.01 54 1010.8
20260503174518 63 122 9.6 15.6 0.00 0.02 0.01 54 1010.8
20260503174018 63 115 8.7 13.9 0.00 0.02 0.01 56 1010.8
20260503173518 63 101 10.4 14.8 0.00 0.02 0.01 55 1010.8
20260503173018 63 98 7.8 17.4 0.00 0.02 0.01 54 1010.8
20260503172518 63 82 6.1 10.4 0.00 0.02 0.01 60 1010.8
20260503172018 62 96 7.0 10.4 0.00 0.02 0.01 59 1010.8
20260503171518 62 88 7.0 9.6 0.00 0.02 0.01 62 1010.8
20260503171018 63 97 7.0 13.9 0.00 0.02 0.01 58 1010.8
20260503170518 64 88 6.1 10.4 0.00 0.02 0.01 60 1010.7
20260503150518 62 101 9.6 13.0 0.00 0.03 0.01 62 1011.2
20260503131019 55 144 7.0 13.9 0.00 0.04 0.01 73 1012.9
20260503130519 58 140 5.2 13.0 0.00 0.04 0.01 70 1012.9
20260503110519 58 101 0.0 1.7 0.01 0.07 0.01 74 1013.8
20260503081520 52 1 0.9 2.6 0.00 0.06 0.00 58 1014.6
20260503081020 52 321 0.9 1.7 0.00 0.06 0.00 58 1014.7
20260503080520 52 11 0.9 1.7 0.00 0.06 0.00 58 1014.6
20260503072520 52 53 1.7 4.3 0.00 0.06 0.00 61 1014.8
20260503072020 52 47 0.9 2.6 0.00 0.06 0.00 60 1014.5
20260503071520 52 51 0.0 1.7 0.00 0.06 0.00 60 1014.4
20260503071020 52 51 0.0 1.7 0.00 0.06 0.00 59 1014.3
20260503070520 52 345 0.0 0.9 0.00 0.06 0.00 59 1014.2